Regional Weather Roundup
Issued by NWS Boston, MA

Current Version | Previous Version | Text Only | Print | Product List | Glossary On
Versions: 1 2 3 4 5 6 7 8 9 10 11 12 13 14 15 16 17 18 19 20 21 22 23 24 25 26 27 28 29 30 31 32 33 34 35 36 37 38 39 40 41 42 43 44 45 46 47 48 49 50
023
ASUS41 KBOX 202210
RWRBOX

REGIONAL WEATHER ROUNDUP
NATIONAL WEATHER SERVICE TAUNTON MA
500 PM EST MON FEB 20 2017

NOTE:  "FAIR" INDICATES FEW OR NO CLOUDS BELOW 12,000 FEET WITH NO
SIGNIFICANT WEATHER AND/OR OBSTRUCTIONS TO VISIBILITY.

MAZALL-202300-
EASTERN MASSACHUSETTS

CITY           SKY/WX    TMP DP  RH WIND       PRES   REMARKS
BOSTON         PTCLDY    42  15  33 NW13G20   30.22R
BEVERLY        CLEAR     41  15  35 N9        30.21R
LAWRENCE       CLEAR     41  16  36 N10       30.22R
BEDFORD        CLEAR     41  12  30 N10       30.21R
BLUE HILL      NOT AVBL
NORWOOD        CLEAR     43  15  32 N7        30.21R
MARSHFIELD     CLEAR     39  27  60 VRB3      30.22R
PLYMOUTH       CLEAR     38  25  59 NE9       30.21R WCI  31
TAUNTON        CLEAR     43  14  31 N9        30.20R
NEW BEDFORD    CLEAR     41  24  51 NE9       30.19R
$$

MAZALL-202300-
CAPE COD AND THE ISLANDS

CITY           SKY/WX    TMP DP  RH WIND       PRES   REMARKS
FALMOUTH       CLEAR     37  23  56 MISG      30.21R
HYANNIS        PTCLDY    38  26  62 N10       30.19R WCI  31
CHATHAM        CLEAR     39  24  55 NE9       30.20R
PROVINCETOWN   CLEAR     39  25  57 N15       30.22R WCI  31
NANTUCKET      CLEAR     38  25  59 N15       30.19R WCI  29
MARTHAS VNYRD  CLEAR     39  24  55 NE10      30.19R
$$

MAZALL-202300-
CENTRAL AND WESTERN MASSACHUSETTS

CITY           SKY/WX    TMP DP  RH WIND       PRES   REMARKS
WORCESTER      CLEAR     38   7  27 N13       30.20R WCI  30
FITCHBURG      CLEAR     41  13  31 N14G22    30.23R
ORANGE         CLEAR     38  11  32 N9        30.23R WCI  31
SPRINGFIELD    CLEAR     41   9  27 NE15      30.23R
WESTFIELD      CLEAR     42  13  30 NW15G22   30.24R
NORTH ADAMS    CLEAR     37   6  27 NW8       30.27R WCI  31
PITTSFIELD     CLEAR     36  11  35 NW9       30.24R WCI  29
$$

RIZALL-202300-
RHODE ISLAND

CITY           SKY/WX    TMP DP  RH WIND       PRES   REMARKS
PROVIDENCE     CLEAR     43  13  29 N17       30.21R
NEWPORT        CLEAR     43  16  33 N12       30.19R
BLOCK ISLAND   CLEAR     40  31  70 SE6       30.21R
SMITHFIELD     CLEAR     40  16  37 N12       30.20R
WESTERLY       CLEAR     47   9  21 N12       30.21R
$$

CTZALL-202300-
CONNECTICUT

CITY           SKY/WX    TMP DP  RH WIND       PRES   REMARKS
BRADLEY INTL   CLEAR     43  13  29 N10G22    30.24R
HARTFORD       CLEAR     45  15  30 N12       30.23R
BRIDGEPORT     CLEAR     48  16  27 NW15      30.23R
DANBURY        CLEAR     43  14  31 N14G22    30.25R
GROTON         CLEAR     46   8  21 N14       30.21R
NEW HAVEN      CLEAR     46  14  27 NW10      30.22R
CHESTER        FAIR      45  18  33 NW12      30.21R
MERIDEN        CLEAR     47  13  25 N8        30.23R
WILLIMANTIC    CLEAR     45   6  20 N12       30.22R
OXFORD         CLEAR     43  12  28 N15       30.23R
$$

MEZ002-015-021-024-NHZ003-005-008-011-012-014-VTZ005-008-202300-
NORTHERN NEW ENGLAND

CITY           SKY/WX    TMP DP  RH WIND       PRES   REMARKS
PORTLAND ME    CLEAR     39  15  37 N15       30.23R WCI  31
BANGOR ME      CLEAR     36  18  48 N12       30.22R WCI  28
CONCORD NH     CLEAR     38  13  35 N9        30.24R WCI  31
MANCHESTER NH  CLEAR     39  14  36 N15       30.22R WCI  31
NASHUA NH      CLEAR     40  16  37 NW12G20   30.24R
PORTSMOUTH NH  CLEAR     37  19  48 NW14      30.21R WCI  29
JAFFREY NH     CLEAR     38  10  31 VRB5      30.21R
KEENE NH       CLEAR     38  13  35 N13       30.25R WCI  30
BURLINGTON VT  CLEAR     32  16  51 N9        30.34R WCI  24
MT. WASHINGTON PTCLDY     7   1  78 NW39G48     N/A  WCI -19
$$

NYZ052-076-202300-
EASTERN NEW YORK

CITY           SKY/WX    TMP DP  RH WIND       PRES   REMARKS
ALBANY         PTCLDY    40  17  39 NE10      30.32R
NEW YORK CITY  PTCLDY    54  15  21 N9        30.21R
$$

ANZALL-202300-
MARINE OBSERVATIONS

STATION/POSITION TIME  TEMP    WIND        PRES    VSBY  WAVE
                       AIR SEA DIR/SP/G                  HT/PER
                 (UTC) (F)     (DEG/KT/KT) (MB)    (MI)  (FT/S)
BOSTON BUOY      2050   39 42   30/ 12/ 14 1021.2          3/ 5
BUZZARDS BAY     2100   39      70/ 12/ 14 1022.1R
NANTUCKET SOUND  2050   39 39   10/ 14/ 17 1021.5          2/ 4
MASS BAY-STELLWA 2104   40 40   10/ 10/ 10 1021.3R  1 7/8  3/ 6
ISLE OF SHOALS   2200   41     340/ 14/ 16 1023.0R
S OF BLOCK IS    2155      43                N/A           2/ 4
$$

......................KEY.........................
  SKY/WX - SKY CONDITION/PRESENT WEATHER
  TMP    - TEMPERATURE IN FAHRENHEIT
  DWPT   - DEWPOINT IN FAHRENHEIT
  RH     - RELATIVE HUMIDITY IN PERCENT
  WIND   - DIRECTION AND SPEED IN MPH
  PRES   - MEAN SEA LEVEL PRESSURE IN INCHES OF HG
  WCI    - WIND CHILL INDEX
  VSB    - VISIBILITY IN MILES
  HX     - HEAT INDEX
  TC     - TEMPERATURE IN CELSIUS
  VRB    - VARIABLE WIND DIRECTION
  N/A    - NOT AVAILABLE




USA.gov is the U.S. government's official web portal to all federal, state and local government web resources and services.